Regional Weather Roundup
Issued by NWS Huntsville, AL

Home | Current Version | Previous Version | Text Only | Print | Product List | Glossary On
Versions: 1 2 3 4 5 6 7 8 9 10 11 12 13 14 15 16 17 18 19 20 21 22 23 24 25 26 27 28 29 30 31 32 33 34 35 36 37 38 39 40 41 42 43 44 45 46 47 48 49 50
000
ASUS44 KHUN 181110
RWRHUN

WEATHER ROUNDUP FOR THE TENNESSEE VALLEY
NATIONAL WEATHER SERVICE HUNTSVILLE AL
600 AM CDT FRI AUG 18 2017

ALZ001>004-181200-
NORTHWEST ALABAMA

CITY           SKY/WX    TMP DP  RH WIND       PRES   REMARKS
COURTLAND HCN    N/A     75 N/A N/A W5          N/A
RUSSELLVILLE     N/A     75 N/A N/A MISG        N/A
SHOALS AIRPORT CLOUDY    76  73  91 W8        30.00R
SHOALS TVA RES   N/A     75 N/A N/A MISG        N/A
$$

ALZ005>007-016-181200-
NORTH CENTRAL ALABAMA

CITY           SKY/WX    TMP DP  RH WIND       PRES   REMARKS
CULLMAN AG STN   N/A     75 N/A N/A W5          N/A
DECATUR AP     MOCLDY    77  76  96 W8        30.00R
HUNTSVILLE AP  MOCLDY    76  76 100 W5        29.99R
MERIDIANVILLE  MOCLDY    75  72  88 CALM      30.00R
REDSTONE ARSN  MOCLDY    76  74  96 W6        29.99R
VINEMONT AP    FAIR     N/A N/A N/A CALM      30.04R
$$

ALZ008>010-181200-
NORTHEAST ALABAMA

CITY           SKY/WX    TMP DP  RH WIND       PRES   REMARKS
ALBERTVILLE    CLOUDY    73  73 100 W5        30.01R
FORT PAYNE     CLOUDY    73  70  88 SW6       30.00R
SCOTTSBORO AP  PTCLDY    75  75 100 SW3       30.00R
SCOTTSBORO HCN   N/A     75 N/A N/A MISG        N/A
VALLEY HEAD      N/A     73 N/A N/A MISG        N/A
$$

TNZ076-096-097-181200-
SOUTHEASTERN MIDDLE TENNESSEE

CITY           SKY/WX    TMP DP  RH WIND       PRES   REMARKS
TULLAHOMA        N/A     73  72  94 W5        30.01R
WINCHESTER     CLOUDY    73  73 100 W3        30.00R
$$

...SURROUNDING SITES...

CITY           SKY/WX    TMP DP  RH WIND       PRES   REMARKS
ATLANTA        PTCLDY    75  71  87 SW5       30.02R
ANNISTON       MOCLDY    74  72  93 SW3       30.02R
BIRMINGHAM     MOCLDY    76  73  91 W7        30.04R
CHATTANOOGA    CLOUDY    77  72  84 S6        29.98R
DALTON         NOT AVBL
GADSDEN        MOCLDY    75  74  96 W5        30.01R
GOLDEN TRNGL   PTCLDY    73  72  94 CALM      29.97
HALEYVILLE     FAIR      74  73  97 W5        30.04R
JACKSON TN     MOCLDY    73  73 100 W7        29.98R
MEMPHIS        PTCLDY    72  72 100 W3        29.99R
NASHVILLE      MOCLDY    77  73  87 W6        29.97R
OXFORD MS        N/A    N/A N/A N/A MISG        N/A
ROME           PTCLDY    75  74  96 W3        29.99R
SAVANNAH       PTCLDY    73  72  94 CALM      29.98R
SELMER         CLOUDY    72  72 100 W5        29.98R FOG
TUPELO         PTCLDY    74  71  91 SW3       29.99S
TUSCALOOSA     CLEAR     75  75 100 CALM      30.01R
$$

...GULF COAST WEATHER...

CITY           SKY/WX    TMP DP  RH WIND       PRES   REMARKS
GULFPORT       CLEAR     79  78  97 W3        30.02R
PASCAGOULA     CLEAR     75  73  93 CALM      30.02R
MOBILE         PTCLDY    77  76  96 CALM      30.04R
GULF SHORES    SUNNY     81  81 100 CALM      30.02R HX  91
PENSACOLA      PTCLDY    81  77  88 NW3       30.01R
DESTIN         PTCLDY    84  77  79 NW6       30.01S HX  94
PANAMA CITY    PTCLDY    83  79  88 N9        30.01R HX  93
APPALACHICOLA  CLEAR     80  80 100 CALM      29.99S
$$




USA.gov is the U.S. government's official web portal to all federal, state and local government web resources and services.